EW4536 Weather Reports


Display with metric or nautical units.
time (UTC)temp
F
wind
direction
speed
MPH
gust
MPH
rain 1hr
in
rain 24hr
in
rain mn
in
humidity
%
barometer
mb
20260902083028 75 121 0.0 1.0 0.00 0.00 0.00 96 1016.2
20260902081556 75 122 0.0 0.0 0.00 0.00 0.00 96 1016.1
20260902080022 75 122 0.0 0.0 0.00 0.00 0.00 96 1016.1
20260902074611 75 122 0.0 0.0 0.00 0.00 0.00 96 1016.1
20260902073027 75 122 0.0 0.0 0.00 0.00 0.00 96 1016.1
20260902071601 75 122 0.0 0.0 0.00 0.00 0.00 96 1016.2
20260902070020 74 123 0.0 0.0 0.00 0.00 0.00 96 1016.0
20260902064605 74 123 0.0 0.0 0.00 0.00 0.00 96 1016.0
20260902063033 73 123 0.0 0.0 0.00 0.00 0.00 96 1016.0
20260902061612 74 123 0.0 0.0 0.00 0.00 0.00 96 1016.0
20260902060053 73 123 0.0 0.0 0.00 0.00 0.00 95 1016.0
20260902054500 74 123 0.0 0.0 0.00 0.00 0.00 95 1016.0
20260902053058 74 123 0.0 0.0 0.00 0.00 0.00 95 1016.1
20260902051514 74 123 0.0 0.0 0.00 0.00 0.00 95 1016.1
20260902050059 74 123 0.0 0.0 0.00 0.00 0.00 95 1016.2
20260902044519 74 123 0.0 0.0 0.00 0.00 0.00 95 1016.4
20260902043055 74 123 0.0 0.0 0.00 0.00 0.00 95 1016.5
20260902041516 74 123 0.0 0.0 0.00 0.00 0.00 95 1016.6
20260902040051 74 123 0.0 0.0 0.00 0.00 0.00 95 1016.8
20260902034522 75 123 0.0 0.0 0.00 0.00 0.00 95 1016.7
20260902033105 75 123 0.0 0.0 0.00 0.00 0.00 95 1016.7
20260902031518 75 123 0.0 0.0 0.00 0.00 0.00 94 1016.9
20260902030056 76 123 0.0 0.0 0.00 0.00 0.00 94 1017.0
20260902024515 76 123 0.0 0.0 0.00 0.00 0.00 94 1017.1
20260902023051 76 123 0.0 0.0 0.00 0.00 0.00 94 1017.1
20260902021513 77 123 0.0 0.0 0.00 0.00 0.00 94 1017.0
20260902020058 76 123 0.0 0.0 0.00 0.00 0.00 93 1017.0
20260902014516 77 123 0.0 0.0 0.00 0.00 0.00 93 1016.9
20260902013053 77 123 0.0 0.0 0.00 0.00 0.00 92 1016.7
20260902011526 78 123 0.0 0.0 0.00 0.00 0.00 92 1016.6
20260902010105 78 123 0.0 0.0 0.00 0.00 0.00 90 1016.4
20260902004524 79 123 0.0 0.0 0.00 0.00 0.00 89 1016.2
20260902003104 80 123 0.0 0.0 0.00 0.00 0.00 88 1016.2
20260902001548 80 122 0.0 0.0 0.00 0.00 0.00 88 1016.3
20260902000111 80 122 0.0 0.0 0.00 0.00 0.00 89 1016.2
20260901234535 81 122 0.0 0.0 0.00 0.00 0.00 89 1016.2
20260901233109 81 122 0.0 2.0 0.00 0.00 0.00 88 1016.2
20260901231538 81 122 0.0 2.0 0.00 0.00 0.00 87 1016.1
20260901230008 81 122 0.0 2.0 0.00 0.00 0.00 86 1015.8
20260901224538 81 122 0.0 0.0 0.00 0.00 0.00 86 1015.7
20260901223111 81 122 0.0 0.0 0.00 0.00 0.00 87 1015.6
20260901221539 81 122 0.0 2.0 0.00 0.00 0.00 88 1015.8
20260901220004 81 122 0.0 0.0 0.00 0.00 0.00 87 1015.8
20260901214541 81 122 1.0 3.0 0.00 0.00 0.00 85 1015.8
20260901213001 82 114 1.0 7.0 0.00 0.00 0.00 83 1015.8
20260901211541 82 38 1.0 4.0 0.00 0.00 0.00 83 1015.9
20260901210112 83 30 2.0 5.0 0.00 0.00 0.00 81 1015.8
20260901204532 84 44 2.0 4.0 0.00 0.00 0.00 79 1015.8
20260901203106 84 37 1.0 4.0 0.00 0.00 0.00 78 1016.2
20260901201533 85 85 3.0 7.0 0.00 0.00 0.00 76 1016.2
20260901200104 87 67 3.0 9.0 0.00 0.00 0.00 75 1016.0
20260901194521 86 43 2.0 6.0 0.00 0.00 0.00 74 1015.9
20260901193103 87 96 3.0 7.0 0.00 0.00 0.00 72 1015.8
20260901191514 87 66 2.0 6.0 0.00 0.00 0.00 71 1016.0
20260901190048 89 134 3.0 11.0 0.00 0.00 0.00 66 1016.1
20260901184511 89 93 1.0 10.0 0.00 0.00 0.00 68 1016.2
20260901183054 86 95 3.0 8.0 0.00 0.00 0.00 74 1016.4
20260901181518 88 78 1.0 4.0 0.00 0.00 0.00 71 1016.4
20260901180050 85 107 1.0 3.0 0.00 0.00 0.00 80 1016.7
20260901174525 82 118 0.0 3.0 0.00 0.00 0.00 87 1017.1
20260901173054 81 107 4.0 11.0 0.00 0.00 0.00 85 1017.1
20260901171520 87 77 0.0 5.0 0.00 0.00 0.00 71 1017.0
20260901170119 89 83 1.0 5.0 0.00 0.00 0.00 69 1017.2
20260901164520 88 5 4.0 7.0 0.00 0.00 0.00 69 1017.4
20260901163051 89 69 1.0 5.0 0.00 0.00 0.00 68 1017.5
20260901161520 87 43 1.0 3.0 0.00 0.00 0.00 70 1017.7
20260901160101 86 32 2.0 4.0 0.00 0.00 0.00 74 1017.8
20260901154523 86 43 1.0 4.0 0.00 0.00 0.00 75 1017.9
20260901153103 86 82 2.0 9.0 0.00 0.00 0.00 74 1018.0
20260901151522 84 9 0.0 5.0 0.00 0.00 0.00 79 1018.0
20260901150109 85 69 1.0 6.0 0.00 0.00 0.00 78 1018.0
20260901144520 83 31 1.0 5.0 0.00 0.00 0.00 83 1017.9
20260901143053 82 48 0.0 3.0 0.00 0.00 0.00 84 1017.9
20260901141524 81 52 0.0 4.0 0.00 0.00 0.00 89 1017.8
20260901140106 80 78 1.0 2.0 0.00 0.00 0.00 93 1017.9
20260901134520 78 96 0.0 2.0 0.00 0.00 0.00 95 1017.9
20260901133105 77 44 1.0 4.0 0.00 0.00 0.00 96 1017.9
20260901131530 76 45 0.0 2.0 0.00 0.00 0.00 97 1017.9
20260901130109 76 38 1.0 3.0 0.00 0.00 0.00 97 1018.0
20260901124535 75 61 1.0 2.0 0.00 0.00 0.00 97 1017.7
20260901123022 75 61 0.0 2.0 0.00 0.00 0.00 97 1017.6
20260901121558 74 61 0.0 2.0 0.00 0.00 0.00 97 1017.5
20260901120013 74 61 0.0 2.0 0.00 0.00 0.00 97 1017.4
20260901114557 74 61 0.0 2.0 0.00 0.00 0.00 96 1017.2
20260901113020 73 61 0.0 2.0 0.00 0.00 0.00 96 1017.0
20260901111556 73 61 0.0 0.0 0.00 0.00 0.00 96 1016.9
20260901110016 73 61 0.0 0.0 0.00 0.00 0.00 96 1016.8
20260901104556 73 61 0.0 0.0 0.00 0.00 0.00 96 1016.6
20260901103025 73 61 0.0 0.0 0.00 0.00 0.00 96 1016.6
20260901101604 73 61 0.0 0.0 0.00 0.00 0.00 96 1016.4
20260901100037 73 61 0.0 0.0 0.00 0.00 0.00 96 1016.4
20260901094610 73 61 0.0 0.0 0.00 0.00 0.00 96 1016.3
20260901093039 73 61 0.0 0.0 0.00 0.00 0.00 96 1016.2
20260901091509 73 61 0.0 0.0 0.00 0.00 0.00 96 1016.1
20260901090044 73 61 0.0 2.0 0.00 0.00 0.00 96 1016.0
20260901084507 73 61 0.0 2.0 0.00 0.00 0.00 96 1016.1